• In Czech Republic
  • List of Countries
  • For 7 days
  • Water Temperature
  • Satellite Maps
  • Weather Map
  • Weather Widgets
  • user-avatar
    Login

    Hourly Weather Birmingham

    Today, 25 February, Sunday

    Time Temperature Precipitation Wind Pressure Humidity
    00:00 -3°C° 0 mm 4 mps 756 mmHg 81%
    01:00 -3°C° 0 mm 4 mps 756 mmHg 80%
    02:00 -3°C° 0 mm 4 mps 756 mmHg 79%
    03:00 -3°C° 0 mm 4 mps 756 mmHg 79%
    04:00 -4°C° 0 mm 4 mps 756 mmHg 78%
    05:00 -4°C° 0 mm 4 mps 756 mmHg 76%
    06:00 -4°C° 0 mm 3 mps 757 mmHg 78%
    07:00 -4°C° 0 mm 4 mps 757 mmHg 72%
    08:00 -4°C° 0 mm 5 mps 757 mmHg 66%
    09:00 -3°C° 0 mm 6 mps 758 mmHg 60%
    10:00 -2°C° 0 mm 6 mps 758 mmHg 56%
    11:00 0°C° 0 mm 5 mps 758 mmHg 51%
    12:00 +1°C° 0 mm 5 mps 758 mmHg 47%
    13:00 +1°C° 0 mm 5 mps 758 mmHg 47%
    14:00 +2°C° 0 mm 5 mps 758 mmHg 47%
    15:00 +2°C° 0 mm 5 mps 757 mmHg 48%
    16:00 0°C° 0 mm 5 mps 758 mmHg 52%
    17:00 -1°C° 0 mm 4 mps 758 mmHg 57%
    18:00 -2°C° 0 mm 4 mps 758 mmHg 61%
    19:00 -3°C° 0 mm 4 mps 758 mmHg 62%
    20:00 -4°C° 0 mm 4 mps 759 mmHg 63%
    21:00 -4°C° 0 mm 4 mps 759 mmHg 64%
    22:00 -4°C° 0 mm 4 mps 759 mmHg 64%
    23:00 -4°C° 0 mm 4 mps 760 mmHg 64%

    Tomorrow, 26 February, Monday

    Time Temperature Precipitation Wind Pressure Humidity
    00:00 -5°C° 0 mm 4 mps 760 mmHg 64%
    01:00 -5°C° 0 mm 4 mps 760 mmHg 66%
    02:00 -5°C° 0 mm 3 mps 760 mmHg 69%
    03:00 -5°C° 0 mm 3 mps 760 mmHg 72%
    04:00 -5°C° 0 mm 3 mps 760 mmHg 74%
    05:00 -5°C° 0 mm 3 mps 760 mmHg 77%
    06:00 -5°C° 0 mm 3 mps 760 mmHg 79%
    07:00 -4°C° 0 mm 4 mps 760 mmHg 73%
    08:00 -4°C° 0 mm 5 mps 761 mmHg 66%
    09:00 -4°C° 0 mm 6 mps 761 mmHg 60%
    10:00 -3°C° 0 mm 6 mps 761 mmHg 56%
    11:00 -2°C° 0 mm 6 mps 761 mmHg 52%
    12:00 -2°C° 0 mm 6 mps 761 mmHg 48%
    13:00 -2°C° 0 mm 6 mps 761 mmHg 48%
    14:00 -2°C° 0 mm 6 mps 760 mmHg 49%
    15:00 -2°C° 0 mm 6 mps 760 mmHg 49%
    16:00 -2°C° 0 mm 5 mps 760 mmHg 53%
    17:00 -4°C° 0 mm 5 mps 760 mmHg 58%
    18:00 -4°C° 0 mm 4 mps 760 mmHg 62%
    19:00 -4°C° 0 mm 4 mps 760 mmHg 66%
    20:00 -4°C° 0 mm 4 mps 760 mmHg 70%
    21:00 -5°C° 0 mm 4 mps 760 mmHg 73%
    22:00 -5°C° 0 mm 4 mps 760 mmHg 74%
    23:00 -5°C° 0 mm 3 mps 760 mmHg 75%

    Day after tomorrow, 27 February, Tuesday

    Time Temperature Precipitation Wind Pressure Humidity
    00:00 -5°C° 0 mm 3 mps 759 mmHg 76%
    01:00 -5°C° 0 mm 3 mps 759 mmHg 78%
    02:00 -5°C° 0 mm 3 mps 758 mmHg 79%
    03:00 -4°C° 0 mm 2 mps 758 mmHg 80%
    04:00 -5°C° 0.4 mm 3 mps 757 mmHg 83%
    05:00 -5°C° 0.4 mm 3 mps 756 mmHg 86%
    06:00 -4°C° 0.4 mm 3 mps 756 mmHg 89%
    07:00 -4°C° 0.3 mm 4 mps 756 mmHg 88%
    08:00 -4°C° 0.3 mm 4 mps 755 mmHg 87%
    09:00 -3°C° 0.3 mm 4 mps 755 mmHg 86%
    10:00 -4°C° 0.1 mm 5 mps 755 mmHg 80%
    11:00 -4°C° 0.1 mm 5 mps 755 mmHg 74%
    12:00 -2°C° 0.1 mm 5 mps 754 mmHg 69%
    13:00 -2°C° 0.1 mm 5 mps 754 mmHg 67%
    14:00 -2°C° 0.1 mm 5 mps 754 mmHg 66%
    15:00 -2°C° 0.1 mm 5 mps 753 mmHg 65%
    16:00 -4°C° 0.1 mm 5 mps 753 mmHg 70%
    17:00 -4°C° 0.1 mm 4 mps 753 mmHg 76%
    18:00 -5°C° 0.1 mm 4 mps 753 mmHg 81%
    19:00 -5°C° 0 mm 3 mps 753 mmHg 84%
    20:00 -6°C° 0 mm 3 mps 753 mmHg 87%
    21:00 -6°C° 0 mm 3 mps 753 mmHg 89%
    22:00 -6°C° 0.1 mm 3 mps 753 mmHg 89%
    23:00 -6°C° 0.1 mm 3 mps 753 mmHg 90%

    28 February, Wednesday

    Time Temperature Precipitation Wind Pressure Humidity
    00:00 -6°C° 0.1 mm 3 mps 753 mmHg 90%
    01:00 -6°C° 0.1 mm 3 mps 752 mmHg 89%
    02:00 -7°C° 0.1 mm 3 mps 752 mmHg 89%
    03:00 -7°C° 0.1 mm 3 mps 751 mmHg 88%
    04:00 -7°C° 0 mm 3 mps 751 mmHg 89%
    05:00 -7°C° 0 mm 3 mps 751 mmHg 90%
    06:00 -8°C° 0 mm 3 mps 750 mmHg 90%
    07:00 -7°C° 0 mm 3 mps 750 mmHg 88%
    08:00 -7°C° 0 mm 3 mps 750 mmHg 87%
    09:00 -7°C° 0 mm 4 mps 750 mmHg 85%
    10:00 -5°C° 0.1 mm 4 mps 751 mmHg 78%
    11:00 -5°C° 0.1 mm 5 mps 751 mmHg 72%
    12:00 -5°C° 0.1 mm 5 mps 751 mmHg 65%
    13:00 -5°C° 0.2 mm 6 mps 751 mmHg 65%
    14:00 -6°C° 0.2 mm 7 mps 750 mmHg 66%
    15:00 -7°C° 0.2 mm 7 mps 750 mmHg 66%
    16:00 -8°C° 0 mm 6 mps 750 mmHg 70%
    17:00 -9°C° 0 mm 6 mps 750 mmHg 73%
    18:00 -10°C° 0 mm 5 mps 750 mmHg 77%
    19:00 -10°C° 0 mm 5 mps 749 mmHg 78%
    20:00 -10°C° 0 mm 5 mps 749 mmHg 80%
    21:00 -11°C° 0 mm 6 mps 749 mmHg 81%
    22:00 -10°C° 0 mm 6 mps 749 mmHg 81%
    23:00 -10°C° 0 mm 6 mps 748 mmHg 80%

    1 March, Thursday

    Time Temperature Precipitation Wind Pressure Humidity
    00:00 -10°C° 0 mm 6 mps 748 mmHg 80%
    01:00 -11°C° 0 mm 7 mps 747 mmHg 80%
    02:00 -11°C° 0 mm 7 mps 746 mmHg 80%
    03:00 -11°C° 0 mm 7 mps 746 mmHg 80%
    04:00 -11°C° 0 mm 8 mps 745 mmHg 80%
    05:00 -11°C° 0 mm 8 mps 745 mmHg 80%
    06:00 -11°C° 0 mm 8 mps 744 mmHg 80%
    07:00 -10°C° 0 mm 9 mps 744 mmHg 78%
    08:00 -10°C° 0 mm 10 mps 744 mmHg 76%
    09:00 -9°C° 0 mm 10 mps 743 mmHg 74%
    10:00 -9°C° 0 mm 10 mps 743 mmHg 73%
    11:00 -8°C° 0 mm 10 mps 743 mmHg 72%
    12:00 -8°C° 0 mm 10 mps 742 mmHg 70%
    13:00 -8°C° 0 mm 10 mps 742 mmHg 70%
    14:00 -8°C° 0 mm 11 mps 741 mmHg 71%
    15:00 -8°C° 0 mm 11 mps 740 mmHg 71%
    16:00 -8°C° 0 mm 10 mps 740 mmHg 72%
    17:00 -8°C° 0 mm 10 mps 740 mmHg 74%
    18:00 -8°C° 0 mm 10 mps 740 mmHg 75%
    19:00 -8°C° 0.1 mm 10 mps 739 mmHg 76%
    20:00 -8°C° 0.1 mm 10 mps 739 mmHg 76%
    21:00 -8°C° 0.1 mm 10 mps 739 mmHg 77%
    22:00 -8°C° 0.2 mm 10 mps 738 mmHg 78%
    23:00 -8°C° 0.2 mm 10 mps 737 mmHg 79%

    2 March, Friday

    Time Temperature Precipitation Wind Pressure Humidity
    00:00 -8°C° 0.2 mm 10 mps 737 mmHg 80%
    01:00 -8°C° 0.8 mm 10 mps 736 mmHg 84%
    02:00 -9°C° 0.8 mm 10 mps 735 mmHg 87%
    03:00 -9°C° 0.8 mm 10 mps 735 mmHg 91%
    04:00 -9°C° 1.4 mm 11 mps 734 mmHg 92%
    05:00 -9°C° 1.4 mm 11 mps 733 mmHg 92%
    06:00 -8°C° 1.4 mm 11 mps 733 mmHg 93%
    07:00 -8°C° 1.3 mm 10 mps 732 mmHg 93%
    08:00 -8°C° 1.3 mm 10 mps 732 mmHg 94%
    09:00 -8°C° 1.3 mm 9 mps 732 mmHg 94%
    10:00 -8°C° 1 mm 9 mps 732 mmHg 94%
    11:00 -6°C° 1 mm 8 mps 732 mmHg 94%
    12:00 -6°C° 1 mm 8 mps 732 mmHg 95%
    13:00 -6°C° 0.3 mm 7 mps 731 mmHg 95%
    14:00 -6°C° 0.3 mm 7 mps 731 mmHg 95%
    15:00 -4°C° 0.3 mm 6 mps 731 mmHg 96%
    16:00 -4°C° 0.1 mm 6 mps 730 mmHg 96%
    17:00 -4°C° 0.1 mm 6 mps 730 mmHg 96%
    18:00 -4°C° 0.1 mm 6 mps 730 mmHg 97%
    19:00 -2°C° 0.5 mm 5 mps 730 mmHg 97%
    20:00 -2°C° 0.5 mm 4 mps 730 mmHg 98%
    21:00 -2°C° 0.5 mm 4 mps 729 mmHg 98%
    22:00 -2°C° 0.1 mm 4 mps 729 mmHg 98%
    23:00 -1°C° 0.1 mm 3 mps 728 mmHg 97%
    Show more